Weather History for Roxboro, NC

Change the Weather History Date:

Thursday, October 25, 2012

  Actual Average Record
Temperature  
Mean Temperature 60 °F -  
Max Temperature 77 °F 67 °F 79 °F (1990)
Min Temperature 44 °F 42 °F 28 °F (1993)
Degree Days  
Heating Degree Days 4    
Growing Degree Days 10 (Base 50)    
Moisture  
Dew Point 52 °F    
Average Humidity 81    
Maximum Humidity 100    
Minimum Humidity 41    
Precipitation  
Precipitation 0.00 in - - ()
Sea Level Pressure  
Sea Level Pressure 30.16 in    
Wind  
Wind Speed 1 mph (SE)    
Max Wind Speed 6 mph    
Max Gust Speed -    
Visibility 8 miles    
Events      
Averages and records for this station are not official NWS values.
T = Trace of Precipitation, MM = Missing Value Source: NWS Daily Summary

Daily Weather History Graph

Daily Weather History Graph

Search for Another Location

Airport:

Trip Planner

Search our weather history database for the weather conditions in past years. The results will help you decide how hot, cold, wet, or windy it might be!

Date:

Astronomy

Oct. 25, 2012 Rise Set
Actual Time 7:32 AM EDT 6:26 PM EDT
Civil Twilight 7:06 AM EDT 6:53 PM EDT
Nautical Twilight 6:36 AM EDT 7:23 PM EDT
Astronomical Twilight 6:06 AM EDT 7:53 PM EDT
Moon 4:06 PM EDT (10/25) 3:33 AM EDT (10/25)
Length of Visible Light 11h 46m
Length of Day
10h 54m
Waxing Gibbous, 84% of the Moon is Illuminated
Oct 25
Waxing Gibbous
Oct 29
Full
Nov 6
Last Quarter
Nov 13
New
Nov 20
First Quarter

Hourly Weather History & Observations

Time (EDT) Temp. Dew Point Humidity Pressure Visibility Wind Dir Wind Speed Gust Speed Precip Events Conditions
12:15 AM 51.8 °F 51.8 °F 100% 30.16 in 10.0 mi Calm Calm - N/A   Clear
12:35 AM 51.8 °F 51.8 °F 100% 30.16 in 2.5 mi Calm Calm - N/A   Clear
12:55 AM 51.8 °F 51.8 °F 100% 30.17 in 5.0 mi ENE 3.5 mph - N/A   Clear
1:15 AM 50.0 °F 50.0 °F 100% 30.17 in 7.0 mi Calm Calm - N/A   Clear
1:35 AM 50.0 °F 50.0 °F 100% 30.17 in 10.0 mi Calm Calm - N/A   Clear
1:55 AM 50.0 °F 50.0 °F 100% 30.17 in 5.0 mi Calm Calm - N/A   Clear
2:15 AM 50.0 °F 50.0 °F 100% 30.16 in 5.0 mi Calm Calm - N/A   Clear
2:35 AM 50.0 °F 50.0 °F 100% 30.16 in 7.0 mi Calm Calm - N/A   Clear
2:55 AM 50.0 °F 50.0 °F 100% 30.16 in 4.0 mi Calm Calm - N/A   Clear
3:15 AM 46.4 °F 46.4 °F 100% 30.16 in 3.0 mi Calm Calm - N/A   Clear
3:35 AM 46.4 °F 46.4 °F 100% 30.15 in 7.0 mi Calm Calm - N/A   Clear
3:55 AM 48.2 °F 48.2 °F 100% 30.15 in 1.8 mi Calm Calm - N/A   Mist
4:15 AM 46.4 °F 46.4 °F 100% 30.14 in 2.5 mi Calm Calm - N/A   Clear
4:35 AM 46.4 °F 46.4 °F 100% 30.14 in 7.0 mi Calm Calm - N/A   Clear
4:55 AM 46.4 °F 46.4 °F 100% 30.14 in 1.2 mi Calm Calm - N/A   Mist
5:15 AM 46.4 °F 46.4 °F 100% 30.14 in 2.5 mi Calm Calm - N/A   Clear
5:35 AM 46.4 °F 46.4 °F 100% 30.14 in 3.0 mi Calm Calm - N/A   Clear
5:55 AM 46.4 °F 46.4 °F 100% 30.15 in 4.0 mi Calm Calm - N/A   Clear
6:15 AM 46.4 °F 46.4 °F 100% 30.15 in 1.2 mi Calm Calm - N/A   Mist
6:35 AM 44.6 °F 44.6 °F 100% 30.15 in 10.0 mi Calm Calm - N/A   Clear
6:55 AM 44.6 °F 44.6 °F 100% 30.16 in 7.0 mi Calm Calm - N/A   Clear
7:15 AM 44.6 °F 44.6 °F 100% 30.16 in 7.0 mi Calm Calm - N/A   Clear
7:35 AM 44.6 °F 44.6 °F 100% 30.17 in 1.2 mi Calm Calm - N/A   Mist
7:55 AM 44.6 °F 44.6 °F 100% 30.17 in 10.0 mi Calm Calm - N/A   Clear
8:15 AM 46.4 °F 46.4 °F 100% 30.17 in 7.0 mi Calm Calm - N/A   Clear
8:35 AM 48.2 °F 48.2 °F 100% 30.18 in 10.0 mi Calm Calm - N/A   Clear
8:55 AM 51.8 °F 51.8 °F 100% 30.19 in 10.0 mi Calm Calm - N/A   Clear
9:15 AM 55.4 °F 55.4 °F 100% 30.19 in 10.0 mi Calm Calm - N/A   Clear
9:35 AM 57.2 °F 55.4 °F 94% 30.20 in 10.0 mi Calm Calm - N/A   Clear
9:55 AM 60.8 °F 55.4 °F 82% 30.20 in 10.0 mi Calm Calm - N/A   Clear
10:15 AM 64.4 °F 57.2 °F 77% 30.20 in 10.0 mi Calm Calm - N/A   Clear
10:35 AM 68.0 °F 57.2 °F 68% 30.20 in 10.0 mi Calm Calm - N/A   Clear
10:55 AM 69.8 °F 59.0 °F 68% 30.20 in 10.0 mi Calm Calm - N/A   Clear
11:15 AM 71.6 °F 55.4 °F 57% 30.19 in 10.0 mi Calm Calm - N/A   Clear
11:35 AM 71.6 °F 55.4 °F 57% 30.20 in 10.0 mi Calm Calm - N/A   Clear
11:55 AM 73.4 °F 55.4 °F 53% 30.19 in 10.0 mi Calm Calm - N/A   Clear
12:15 PM 75.2 °F 53.6 °F 47% 30.19 in 10.0 mi SSE 4.6 mph - N/A   Clear
12:35 PM 75.2 °F 53.6 °F 47% 30.19 in 10.0 mi SE 5.8 mph - N/A   Clear
12:55 PM 75.2 °F 53.6 °F 47% 30.18 in 10.0 mi SSE 3.5 mph - N/A   Clear
1:15 PM 75.2 °F 53.6 °F 47% 30.17 in 10.0 mi SW 3.5 mph - N/A   Clear
1:35 PM 75.2 °F 53.6 °F 47% 30.16 in 10.0 mi SSW 4.6 mph - N/A   Clear
1:55 PM 77.0 °F 51.8 °F 41% 30.16 in 10.0 mi Calm Calm - N/A   Clear
2:15 PM 77.0 °F 51.8 °F 41% 30.15 in 10.0 mi Calm Calm - N/A   Clear
2:35 PM 77.0 °F 53.6 °F 44% 30.15 in 10.0 mi Calm Calm - N/A   Clear
2:55 PM 77.0 °F 51.8 °F 41% 30.14 in 10.0 mi Calm Calm - N/A   Clear
3:15 PM 77.0 °F 51.8 °F 41% 30.14 in 10.0 mi SE 5.8 mph - N/A   Clear
3:35 PM 77.0 °F 51.8 °F 41% 30.14 in 10.0 mi SE 5.8 mph - N/A   Clear
3:55 PM 77.0 °F 53.6 °F 44% 30.14 in 10.0 mi ESE 3.5 mph - N/A   Clear
4:15 PM 77.0 °F 53.6 °F 44% 30.14 in 10.0 mi SE 5.8 mph - N/A   Clear
4:35 PM 77.0 °F 53.6 °F 44% 30.14 in 10.0 mi SSE 3.5 mph - N/A   Clear
4:55 PM 77.0 °F 53.6 °F 44% 30.14 in 10.0 mi East 3.5 mph - N/A   Clear
5:15 PM 77.0 °F 55.4 °F 47% 30.14 in 10.0 mi SE 3.5 mph - N/A   Clear
5:35 PM 75.2 °F 55.4 °F 50% 30.14 in 10.0 mi ESE 4.6 mph - N/A   Clear
5:55 PM 73.4 °F 55.4 °F 53% 30.14 in 10.0 mi ESE 3.5 mph - N/A   Clear
6:15 PM 71.6 °F 57.2 °F 60% 30.14 in 10.0 mi Calm Calm - N/A   Clear
6:35 PM 66.2 °F 59.0 °F 78% 30.14 in 10.0 mi SE 3.5 mph - N/A   Clear
6:55 PM 64.4 °F 59.0 °F 83% 30.15 in 10.0 mi Calm Calm - N/A   Clear
7:15 PM 62.6 °F 59.0 °F 88% 30.15 in 10.0 mi Calm Calm - N/A   Clear
7:35 PM 60.8 °F 59.0 °F 94% 30.16 in 10.0 mi Calm Calm - N/A   Clear
7:55 PM 60.8 °F 59.0 °F 94% 30.16 in 10.0 mi Calm Calm - N/A   Clear
8:35 PM 59.0 °F 59.0 °F 100% 30.16 in 10.0 mi Calm Calm - N/A   Clear
8:55 PM 57.2 °F 57.2 °F 100% 30.16 in 7.0 mi Calm Calm - N/A   Clear
9:15 PM 55.4 °F 55.4 °F 100% 30.16 in 7.0 mi Calm Calm - N/A   Clear
9:35 PM 55.4 °F 55.4 °F 100% 30.16 in 7.0 mi Calm Calm - N/A   Clear
9:55 PM 55.4 °F 55.4 °F 100% 30.16 in 10.0 mi Calm Calm - N/A   Clear
10:15 PM 55.4 °F 55.4 °F 100% 30.15 in 5.0 mi Calm Calm - N/A   Clear
10:35 PM 53.6 °F 53.6 °F 100% 30.15 in 1.2 mi Calm Calm - N/A   Mist
10:55 PM 53.6 °F 53.6 °F 100% 30.14 in 0.8 mi Calm Calm - N/A   Mist
11:15 PM 53.6 °F 53.6 °F 100% 30.14 in 7.0 mi Calm Calm - N/A   Clear
11:35 PM 53.6 °F 53.6 °F 100% 30.14 in 5.0 mi Calm Calm - N/A   Clear
11:55 PM 51.8 °F 51.8 °F 100% 30.13 in 3.0 mi Calm Calm - N/A   Clear